Marshalltown, IA

10:26 PM CST on February 23, 2018 (GMT -0600)
Marshalltown Municipal

Weather History for KMIW - August, 2013

Change the Weather History Date:

Tuesday, August 27, 2013

  Actual Average Record
Temperature  
Mean Temperature 84 °F 69 °F  
Max Temperature 96 °F 80 °F 96 °F (2013)
Min Temperature 72 °F 58 °F 51 °F (2015)
Degree Days  
Heating Degree Days 0 1  
Month to date heating degree days 6 7  
Since 1 June heating degree days 58 41  
Since 1 July heating degree days 21 13  
Cooling Degree Days 19 5  
Month to date cooling degree days 180 172  
Year to date cooling degree days 646 638  
Since 1 June cooling degree days 585 588  
Growing Degree Days 34 (Base 50)    
Moisture  
Dew Point 70 °F    
Average Humidity 65    
Maximum Humidity 87    
Minimum Humidity 42    
Precipitation  
Precipitation 0.00 in 0.14 in 0.33 in (1998)
Month to date precipitation 0.10 3.68  
Sea Level Pressure  
Sea Level Pressure 29.89 in    
Wind  
Wind Speed 10 mph (SW)    
Max Wind Speed 20 mph    
Max Gust Speed 24 mph    
Visibility 10 miles    
Events      
T = Trace of Precipitation, MM = Missing Value Source: NWS Daily Summary

Daily Weather History Graph

Daily Weather History Graph

Search for Another Location

Airport or City:

Trip Planner

Search our weather history database for the weather conditions in past years. The results will help you decide how hot, cold, wet, or windy it might be!

Date:

Astronomy

Aug. 27, 2013 Rise Set
Actual Time 6:32 AM CDT 7:53 PM CDT
Civil Twilight 6:03 AM CDT 8:22 PM CDT
Nautical Twilight 5:28 AM CDT 8:57 PM CDT
Astronomical Twilight 4:51 AM CDT 9:33 PM CDT
Moon 11:38 PM CDT (8/27) 1:38 PM CDT (8/27)
Length of Visible Light 14h 19m
Length of Day
13h 21m
Waning Gibbous, 57% of the Moon is Illuminated
Aug 27
Waning Gibbous
Aug 28
Last Quarter
Sep 5
New
Sep 12
First Quarter
Sep 19
Full

Hourly Weather History & Observations

Time (CDT) Temp. Heat Index Dew Point Humidity Pressure Visibility Wind Dir Wind Speed Gust Speed Precip Events Conditions
12:53 AM 79.0 °F - 68.0 °F 69% 29.94 in 10.0 mi SSW 9.2 mph - N/A   Clear
1:53 AM 77.0 °F - 68.0 °F 74% 29.94 in 10.0 mi SSW 8.1 mph - N/A   Clear
2:53 AM 75.9 °F - 68.0 °F 76% 29.93 in 10.0 mi SSW 9.2 mph - N/A   Clear
3:53 AM 73.9 °F - 69.1 °F 85% 29.92 in 10.0 mi SSW 6.9 mph - N/A   Clear
4:53 AM 73.9 °F - 69.1 °F 85% 29.91 in 10.0 mi SW 9.2 mph - N/A   Clear
5:53 AM 73.9 °F - 69.1 °F 85% 29.91 in 10.0 mi SW 8.1 mph - N/A   Clear
6:53 AM 73.0 °F - 68.0 °F 84% 29.93 in 10.0 mi SSW 4.6 mph - N/A   Clear
7:53 AM 75.0 °F - 69.1 °F 82% 29.93 in 10.0 mi SSW 8.1 mph - N/A   Clear
8:53 AM 80.1 °F 82.9 °F 69.1 °F 69% 29.91 in 10.0 mi SW 13.8 mph - N/A   Clear
9:53 AM 84.0 °F 87.8 °F 69.1 °F 61% 29.91 in 10.0 mi SW 10.4 mph 21.9 mph N/A   Clear
10:53 AM 87.1 °F 92.0 °F 70.0 °F 57% 29.91 in 10.0 mi WSW 16.1 mph 23.0 mph N/A   Clear
11:53 AM 90.0 °F 94.5 °F 69.1 °F 50% 29.90 in 10.0 mi SW 18.4 mph - N/A   Clear
12:53 PM 91.9 °F 97.4 °F 70.0 °F 48% 29.88 in 10.0 mi SW 16.1 mph - N/A   Clear
1:53 PM 93.9 °F 99.1 °F 69.1 °F 44% 29.86 in 10.0 mi SW 17.3 mph - N/A   Clear
2:53 PM 95.0 °F 101.3 °F 70.0 °F 44% 29.85 in 10.0 mi SW 16.1 mph 21.9 mph N/A   Clear
3:53 PM 96.1 °F 101.6 °F 69.1 °F 41% 29.84 in 10.0 mi SW 12.7 mph 21.9 mph N/A   Clear
4:53 PM 95.0 °F 101.3 °F 70.0 °F 44% 29.84 in 10.0 mi SW 13.8 mph 24.2 mph N/A   Clear
5:53 PM 93.0 °F 100.7 °F 72.0 °F 50% 29.84 in 10.0 mi WSW 9.2 mph - N/A   Clear
6:53 PM 89.1 °F 97.0 °F 73.0 °F 59% 29.84 in 10.0 mi WSW 6.9 mph - N/A   Clear
7:53 PM 84.9 °F 90.1 °F 71.1 °F 63% 29.85 in 10.0 mi WSW 8.1 mph - N/A   Clear
8:53 PM 82.0 °F 86.3 °F 71.1 °F 69% 29.87 in 10.0 mi SW 8.1 mph - N/A   Clear
9:53 PM 80.1 °F 83.6 °F 71.1 °F 74% 29.88 in 10.0 mi SW 6.9 mph - N/A   Clear
10:53 PM 75.9 °F - 71.1 °F 85% 29.89 in 10.0 mi WSW 3.5 mph - N/A   Clear
11:53 PM 75.9 °F - 70.0 °F 82% 29.89 in 10.0 mi WSW 3.5 mph - N/A   Clear